Terminal Aerodrome Forecast
Issued by NWS Corpus Christi, TX

Home | Current Version | Previous Version | Text Only | Print | Product List | Glossary On
Versions: 1 2 3 4 5 6 7 8 9 10 11 12 13 14 15 16 17 18 19
000
FTUS44 KCRP 271126
TAFCRP
TAF
KCRP 271126Z 2712/2812 13009KT P6SM SCT015
      TEMPO 2712/2714 BKN015
     FM271500 15012KT P6SM BKN020
     FM271700 14014G18KT P6SM SCT035
     FM280400 15007KT P6SM BKN015=

USA.gov is the U.S. government's official web portal to all federal, state and local government web resources and services.